Grand Forks, ND

7:14 AM CDT on May 23, 2017 (GMT -0500)
Grand Forks International

Weather History for KGFK - May, 2012

Change the Weather History Date:

Thursday, May 24, 2012

  Actual Average Record
Temperature  
Mean Temperature 57 °F 58 °F  
Max Temperature 67 °F 70 °F 91 °F (1980)
Min Temperature 46 °F 45 °F 24 °F (2002)
Degree Days  
Heating Degree Days 8 8  
Month to date heating degree days 162 284  
Since 1 July heating degree days 7388 9362  
Cooling Degree Days 0 1  
Month to date cooling degree days 22 9  
Year to date cooling degree days 22 10  
Growing Degree Days 6 (Base 50)    
Moisture  
Dew Point 43 °F    
Average Humidity 67    
Maximum Humidity 93    
Minimum Humidity 40    
Precipitation  
Precipitation 0.00 in 0.09 in 1.13 in (2010)
Month to date precipitation 1.04 1.99  
Year to date precipitation 5.13 5.03  
Snow  
Snow 0.00 in 0.00 in - ()
Month to date snowfall 0.0 0.1  
Since 1 July snowfall 22.8 47.4  
Snow Depth 0.00 in    
Sea Level Pressure  
Sea Level Pressure 29.52 in    
Wind  
Wind Speed 11 mph (West)    
Max Wind Speed 21 mph    
Max Gust Speed 29 mph    
Visibility 10 miles    
Events      
T = Trace of Precipitation, MM = Missing Value Source: NWS Daily Summary

Daily Weather History Graph

Daily Weather History Graph

Search for Another Location

Airport or City:

Trip Planner

Search our weather history database for the weather conditions in past years. The results will help you decide how hot, cold, wet, or windy it might be!

Date:

Astronomy

May. 24, 2012 Rise Set
Actual Time 5:39 AM CDT 9:12 PM CDT
Civil Twilight 5:00 AM CDT 9:51 PM CDT
Nautical Twilight 4:09 AM CDT 10:42 PM CDT
Astronomical Twilight 3:00 AM CDT 11:53 PM CDT
Moon 8:42 AM CDT (5/24) No Moon Set
Length of Visible Light 16h 50m
Length of Day
15h 32m
Waxing Crescent, 12% of the Moon is Illuminated
May 24
Waxing Crescent
May 28
First Quarter
Jun 4
Full
Jun 11
Last Quarter
Jun 19
New

Hourly Weather History & Observations

Time (CDT) Temp. Dew Point Humidity Pressure Visibility Wind Dir Wind Speed Gust Speed Precip Events Conditions
12:53 AM 53.1 °F 46.9 °F 80% 29.47 in 10.0 mi WSW 6.9 mph - N/A   Clear
1:53 AM 52.0 °F 46.0 °F 80% 29.45 in 10.0 mi WSW 8.1 mph - N/A   Clear
2:53 AM 48.0 °F 44.1 °F 86% 29.45 in 10.0 mi SSW 3.5 mph - N/A   Clear
3:53 AM 46.9 °F 44.1 °F 90% 29.47 in 10.0 mi South 6.9 mph - N/A   Clear
4:53 AM 48.9 °F 44.1 °F 83% 29.48 in 10.0 mi Calm Calm - N/A   Partly Cloudy
5:53 AM 50.0 °F 45.0 °F 83% 29.48 in 10.0 mi West 6.9 mph - N/A   Scattered Clouds
6:53 AM 53.1 °F 46.9 °F 80% 29.48 in 10.0 mi West 4.6 mph - N/A   Scattered Clouds
7:53 AM 57.9 °F 48.0 °F 70% 29.47 in 10.0 mi West 8.1 mph - N/A   Mostly Cloudy
8:53 AM 62.1 °F 46.9 °F 58% 29.47 in 10.0 mi West 11.5 mph - N/A   Mostly Cloudy
9:53 AM 64.9 °F 46.9 °F 52% 29.47 in 10.0 mi WNW 12.7 mph - N/A   Overcast
10:53 AM 66.0 °F 41.0 °F 40% 29.48 in 10.0 mi West 13.8 mph 23.0 mph N/A   Overcast
11:53 AM 66.0 °F 45.0 °F 47% 29.48 in 10.0 mi West 15.0 mph - N/A   Overcast
12:53 PM 64.9 °F 45.0 °F 48% 29.49 in 10.0 mi West 12.7 mph - N/A   Overcast
1:53 PM 64.9 °F 43.0 °F 45% 29.49 in 10.0 mi WNW 18.4 mph 26.5 mph N/A   Overcast
2:53 PM 63.0 °F 43.0 °F 48% 29.51 in 10.0 mi WNW 15.0 mph - N/A   Overcast
3:53 PM 62.1 °F 44.1 °F 52% 29.52 in 10.0 mi WNW 15.0 mph - N/A   Overcast
4:53 PM 61.0 °F 42.1 °F 50% 29.52 in 10.0 mi West 17.3 mph 25.3 mph N/A   Overcast
5:53 PM 61.0 °F 42.1 °F 50% 29.53 in 10.0 mi West 17.3 mph 24.2 mph N/A   Mostly Cloudy
6:53 PM 59.0 °F 41.0 °F 51% 29.55 in 10.0 mi WNW 16.1 mph - N/A   Mostly Cloudy
7:53 PM 55.9 °F 39.0 °F 53% 29.58 in 10.0 mi WNW 17.3 mph 24.2 mph N/A   Mostly Cloudy
8:53 PM 54.0 °F 39.0 °F 57% 29.61 in 10.0 mi WNW 13.8 mph 18.4 mph N/A   Mostly Cloudy
9:53 PM 52.0 °F 39.0 °F 61% 29.64 in 10.0 mi WNW 9.2 mph - N/A   Mostly Cloudy
10:53 PM 52.0 °F 37.9 °F 59% 29.67 in 10.0 mi WNW 9.2 mph - N/A   Overcast
11:53 PM 48.9 °F 37.0 °F 64% 29.69 in 10.0 mi West 8.1 mph - N/A   Overcast